CD170 EDJA-EDJX

Flight info

Callsign CD170
Flight time N/A
Altitude 3000
Route DCT
Aircraft DR40

Departure

Time 2026-04-26 18:38
Airport Memmingen Allgau Airport (EDJA)

Arrival

Time N/A
Airport EDJX
Time Latitude Longitude Altitude Speed Heading
2026-04-26 18:34 47.98664 10.23738 2070 ft 0 kts 329°
2026-04-26 18:35 47.98675 10.23729 2071 ft 0 kts 336°
2026-04-26 18:35 47.98682 10.23717 2071 ft 8 kts 280°
2026-04-26 18:36 47.98679 10.23631 2072 ft 9 kts 321°
2026-04-26 18:36 47.98695 10.23613 2073 ft 0 kts 326°
2026-04-26 18:36 47.98698 10.23610 2073 ft 3 kts 325°
2026-04-26 18:36 47.98756 10.23634 2073 ft 20 kts 54°
2026-04-26 18:37 47.98934 10.24052 2070 ft 71 kts 59°
2026-04-26 18:37 47.99200 10.24768 2188 ft 82 kts 68°
2026-04-26 18:37 47.99004 10.25500 2361 ft 90 kts 155°
2026-04-26 18:37 47.98378 10.25373 2483 ft 100 kts 219°
2026-04-26 18:38 47.97987 10.24537 2615 ft 102 kts 242°
2026-04-26 18:38 47.97624 10.23576 2679 ft 108 kts 244°
2026-04-26 18:38 47.97274 10.22585 2778 ft 109 kts 246°
2026-04-26 18:38 47.96905 10.21589 2851 ft 110 kts 236°
2026-04-26 18:39 47.96434 10.20667 2924 ft 112 kts 231°
2026-04-26 18:39 47.95934 10.19775 3001 ft 114 kts 229°
2026-04-26 18:39 47.95437 10.18854 3134 ft 110 kts 248°
2026-04-26 18:39 47.95527 10.17803 3125 ft 104 kts 326°
2026-04-26 18:40 47.96182 10.17807 2972 ft 103 kts 26°
2026-04-26 18:40 47.96733 10.18430 2674 ft 98 kts 54°
2026-04-26 18:40 47.97053 10.19285 2504 ft 93 kts 64°
2026-04-26 18:40 47.97400 10.20112 2390 ft 96 kts 56°
2026-04-26 18:41 47.97705 10.20945 2282 ft 87 kts 60°
2026-04-26 18:41 47.97988 10.21708 2192 ft 78 kts 57°
2026-04-26 18:41 47.98203 10.22256 2171 ft 54 kts 58°
2026-04-26 18:41 47.98392 10.22733 2141 ft 50 kts 58°
2026-04-26 18:42 47.98566 10.23171 2084 ft 49 kts 57°
2026-04-26 18:42 47.98727 10.23589 2073 ft 38 kts 56°
2026-04-26 18:42 47.98941 10.24099 2091 ft 74 kts 59°
2026-04-26 18:42 47.99027 10.24839 2305 ft 76 kts 112°
2026-04-26 18:43 47.98605 10.25338 2515 ft 80 kts 163°
2026-04-26 18:43 47.98104 10.25088 2738 ft 82 kts 230°
2026-04-26 18:43 47.97742 10.24352 2823 ft 95 kts 237°
2026-04-26 18:43 47.97363 10.23492 2941 ft 100 kts 241°
2026-04-26 18:44 47.97001 10.22595 3039 ft 102 kts 244°
2026-04-26 18:44 47.96662 10.21619 3094 ft 111 kts 243°
2026-04-26 18:44 47.96289 10.20603 3197 ft 113 kts 242°
2026-04-26 18:44 47.95829 10.19630 3244 ft 119 kts 229°
2026-04-26 18:45 47.95249 10.18763 3317 ft 116 kts 223°
2026-04-26 18:45 47.94655 10.17949 3423 ft 114 kts 226°
2026-04-26 18:45 47.94184 10.17007 3532 ft 112 kts 248°
2026-04-26 18:45 47.94082 10.15856 3617 ft 110 kts 289°
2026-04-26 18:46 47.94573 10.15121 3603 ft 104 kts
2026-04-26 18:46 47.95257 10.15515 3314 ft 112 kts 34°
2026-04-26 18:46 47.95860 10.16173 3080 ft 101 kts 54°
2026-04-26 18:46 47.96206 10.17066 2792 ft 99 kts 64°
2026-04-26 18:47 47.96496 10.17932 2655 ft 88 kts 61°
2026-04-26 18:47 47.96791 10.18699 2539 ft 82 kts 60°
2026-04-26 18:47 47.97050 10.19335 2491 ft 67 kts 60°
2026-04-26 18:47 47.97286 10.19928 2365 ft 65 kts 60°
2026-04-26 18:48 47.97501 10.20492 2347 ft 61 kts 59°
2026-04-26 18:48 47.97720 10.21024 2252 ft 59 kts 58°
2026-04-26 18:48 47.97940 10.21568 2202 ft 64 kts 60°
2026-04-26 18:48 47.98158 10.22116 2163 ft 60 kts 60°
2026-04-26 18:49 47.98359 10.22631 2104 ft 54 kts 59°
2026-04-26 18:49 47.98534 10.23073 2075 ft 44 kts 59°
2026-04-26 18:49 47.98660 10.23378 2073 ft 26 kts 60°
2026-04-26 18:49 47.98715 10.23549 2074 ft 12 kts 88°
2026-04-26 18:50 47.98706 10.23606 2073 ft 0 kts 139°
2026-04-26 18:50 47.98688 10.23626 2073 ft 9 kts 144°
2026-04-26 18:50 47.98658 10.23720 2071 ft 10 kts 107°
2026-04-26 18:50 47.98635 10.23730 2071 ft 6 kts 318°
2026-04-26 18:51 47.98637 10.23728 2071 ft 0 kts 327°